User: anonymous   Login
Location: Huntington Beach
(33.6600°N, 117.9980°W)
Time: 08:04:35
(UTC-07:00)
Language:

SL-16 R/B - Orbit

View from above orbital plane
View from above orbital plane
View from above satellite
View from above satellite

Ground track
Ground track

The orbit data is extracted from the following two-line orbital elements,

1 28353U 04021B   16204.88620293  .00000235  00000-0  14824-3 0  9991
2 28353  71.0012  49.0535 0006112 321.9983  38.0707 14.14183232625608
Epoch (UTC): 22 July 2016 21:16:07
Eccentricity: 0.0006112
inclination: 71.0012°
perigee height: 840 km
apogee height: 849 km
right ascension of ascending node: 49.0535°
argument of perigee: 321.9983°
revolutions per day: 14.14183232
mean anomaly at epoch: 38.0707°
orbit number at epoch: 62560

The dashed part of the orbit path shows where the satellite is in the earth's shadow,  

DLR